Location: *
(37.4917°N, 71.5558°E)
Time: 08:52:32
(UTC+00:00)

APEX - Pass Details

Date: 09 April 2020
Orbit: 332 x 1113 km, 69.9° (Epoch: 03 June)

Event Time Altitude Azimuth Distance (km) Brightness Sun altitude
Rises 15:15:14 0° 334° (NNW) 3,696 8.4 -18.0°
Reaches altitude 10° 15:18:03 10° 333° (NNW) 2,639 7.5 -18.5°
Maximum altitude 15:24:07 73° 250° (WSW) 829 4.2 -19.6°
Enters shadow 15:26:57 26° 171° (S) 1,389 5.0 -20.1°
